Gwinner, ND

12:40 AM CST on November 25, 2017 (GMT -0600)
Gwinner-melroe

Weather History for KGWR - May, 2013

Change the Weather History Date:

Friday, May 17, 2013

  Actual Average (KP67) Record (KP67)
Temperature  
Mean Temperature 64 °F -  
Max Temperature 75 °F 64 °F 84 °F (1997)
Min Temperature 53 °F 46 °F 42 °F (1997)
Degree Days  
Heating Degree Days 1    
Growing Degree Days 14 (Base 50)    
Moisture  
Dew Point 49 °F    
Average Humidity 59    
Maximum Humidity 94    
Minimum Humidity 37    
Precipitation  
Precipitation 0.00 in - - ()
Sea Level Pressure  
Sea Level Pressure 29.87 in    
Wind  
Wind Speed 12 mph (East)    
Max Wind Speed 23 mph    
Max Gust Speed 29 mph    
Visibility 10 miles    
Events      
Averages and records for this station are not official NWS values.
T = Trace of Precipitation, MM = Missing Value Source: NWS Daily Summary

Daily Weather History Graph

Daily Weather History Graph

Search for Another Location

Airport or City:

Trip Planner

Search our weather history database for the weather conditions in past years. The results will help you decide how hot, cold, wet, or windy it might be!

Date:

Astronomy

May. 17, 2013 Rise Set
Actual Time 5:55 AM CDT 8:59 PM CDT
Civil Twilight 5:19 AM CDT 9:35 PM CDT
Nautical Twilight 4:33 AM CDT 10:21 PM CDT
Astronomical Twilight 3:38 AM CDT 11:17 PM CDT
Moon 12:39 PM CDT (5/17) 1:43 AM CDT (5/17)
Length of Visible Light 16h 15m
Length of Day
15h 04m
Waxing Crescent, 45% of the Moon is Illuminated
May 17
Waxing Crescent
May 17
First Quarter
May 24
Full
May 31
Last Quarter
Jun 8
New

Hourly Weather History & Observations

Time (CDT) Temp. Dew Point Humidity Pressure Visibility Wind Dir Wind Speed Gust Speed Precip Events Conditions
12:15 AM 57.2 °F 46.4 °F 67% 29.87 in 10.0 mi North 10.4 mph - 0.00 in   Partly Cloudy
12:35 AM 57.2 °F 46.4 °F 67% 29.87 in 10.0 mi NNE 11.5 mph - 0.00 in   Mostly Cloudy
12:55 AM 57.2 °F 46.4 °F 67% 29.86 in 10.0 mi NNE 8.1 mph - 0.00 in   Mostly Cloudy
1:15 AM 57.2 °F 46.4 °F 67% 29.87 in 10.0 mi NNE 6.9 mph - 0.00 in   Clear
1:35 AM 55.4 °F 46.4 °F 72% 29.87 in 10.0 mi NNE 6.9 mph - 0.00 in   Clear
1:55 AM 55.4 °F 44.6 °F 67% 29.88 in 10.0 mi North 6.9 mph - 0.00 in   Clear
2:15 AM 55.4 °F 44.6 °F 67% 29.88 in 10.0 mi NNE 6.9 mph - 0.00 in   Mostly Cloudy
2:35 AM 55.4 °F 44.6 °F 67% 29.88 in 10.0 mi NNE 5.8 mph - 0.00 in   Overcast
2:55 AM 55.4 °F 44.6 °F 67% 29.88 in 10.0 mi NNE 5.8 mph - 0.00 in   Overcast
3:15 AM 57.2 °F 44.6 °F 63% 29.87 in 10.0 mi NE 5.8 mph - 0.00 in   Overcast
3:35 AM 55.4 °F 44.6 °F 67% 29.88 in 10.0 mi NNE 5.8 mph - 0.00 in   Overcast
3:55 AM 55.4 °F 42.8 °F 63% 29.87 in 10.0 mi ENE 6.9 mph - 0.00 in   Mostly Cloudy
4:15 AM 55.4 °F 42.8 °F 63% 29.87 in 10.0 mi East 5.8 mph - 0.00 in   Partly Cloudy
4:35 AM 55.4 °F 41.0 °F 58% 29.87 in 10.0 mi ENE 3.5 mph - 0.00 in   Clear
4:55 AM 55.4 °F 39.2 °F 54% 29.87 in 10.0 mi East 8.1 mph - 0.00 in   Mostly Cloudy
5:15 AM 57.2 °F 39.2 °F 51% 29.87 in 10.0 mi ENE 6.9 mph - 0.00 in   Overcast
5:35 AM 55.4 °F 39.2 °F 54% 29.87 in 10.0 mi ENE 6.9 mph - 0.00 in   Scattered Clouds
5:55 AM 53.6 °F 39.2 °F 58% 29.87 in 10.0 mi East 6.9 mph - 0.00 in   Mostly Cloudy
6:15 AM 55.4 °F 39.2 °F 54% 29.87 in 10.0 mi East 9.2 mph - 0.00 in   Mostly Cloudy
6:35 AM 55.4 °F 37.4 °F 51% 29.88 in 10.0 mi East 11.5 mph - 0.00 in   Partly Cloudy
6:55 AM 55.4 °F 37.4 °F 51% 29.88 in 10.0 mi East 12.7 mph - 0.00 in   Clear
7:15 AM 57.2 °F 37.4 °F 48% 29.89 in 10.0 mi East 12.7 mph - 0.00 in   Clear
7:35 AM 59.0 °F 37.4 °F 45% 29.90 in 10.0 mi East 11.5 mph - 0.00 in   Clear
7:55 AM 60.8 °F 37.4 °F 42% 29.90 in 10.0 mi East 12.7 mph - 0.00 in   Clear
8:15 AM 62.6 °F 37.4 °F 39% 29.90 in 10.0 mi ESE 13.8 mph - 0.00 in   Clear
8:35 AM 64.4 °F 37.4 °F 37% 29.90 in 10.0 mi ESE 13.8 mph - 0.00 in   Clear
8:55 AM 64.4 °F 39.2 °F 40% 29.89 in 10.0 mi ESE 18.4 mph - 0.00 in   Clear
9:15 AM 66.2 °F 41.0 °F 40% 29.89 in 10.0 mi ESE 15.0 mph - 0.00 in   Clear
9:35 AM 66.2 °F 42.8 °F 43% 29.89 in 10.0 mi ESE 13.8 mph - 0.00 in   Clear
9:55 AM 68.0 °F 44.6 °F 43% 29.89 in 10.0 mi ESE 15.0 mph - 0.00 in   Clear
10:15 AM 68.0 °F 46.4 °F 46% 29.89 in 10.0 mi ESE 17.3 mph - 0.00 in   Clear
10:35 AM 69.8 °F 48.2 °F 46% 29.89 in 10.0 mi SE 15.0 mph - 0.00 in   Partly Cloudy
10:55 AM 69.8 °F 48.2 °F 46% 29.89 in 10.0 mi SE 13.8 mph - 0.00 in   Clear
11:15 AM 71.6 °F 48.2 °F 43% 29.88 in 10.0 mi ESE 15.0 mph 20.7 mph 0.00 in   Clear
11:35 AM 73.4 °F 48.2 °F 41% 29.88 in 10.0 mi SE 17.3 mph 20.7 mph 0.00 in   Clear
11:55 AM 73.4 °F 48.2 °F 41% 29.88 in 10.0 mi East 15.0 mph 19.6 mph 0.00 in   Clear
12:15 PM 73.4 °F 51.8 °F 47% 29.87 in 10.0 mi SE 12.7 mph 18.4 mph 0.00 in   Clear
12:35 PM 75.2 °F 51.8 °F 44% 29.87 in 10.0 mi SSE 15.0 mph 20.7 mph 0.00 in   Clear
12:55 PM 75.2 °F 53.6 °F 47% 29.86 in 10.0 mi SE 16.1 mph 20.7 mph 0.00 in   Mostly Cloudy
1:15 PM 73.4 °F 53.6 °F 50% 29.86 in 10.0 mi SE 17.3 mph 25.3 mph 0.00 in   Mostly Cloudy
1:35 PM 73.4 °F 55.4 °F 53% 29.86 in 10.0 mi SE 15.0 mph - 0.00 in   Mostly Cloudy
1:55 PM 73.4 °F 55.4 °F 53% 29.86 in 10.0 mi ESE 16.1 mph 20.7 mph 0.00 in   Overcast
2:15 PM 75.2 °F 55.4 °F 50% 29.86 in 10.0 mi ESE 13.8 mph 20.7 mph 0.00 in   Mostly Cloudy
2:35 PM 75.2 °F 55.4 °F 50% 29.86 in 10.0 mi ESE 16.1 mph 21.9 mph 0.00 in   Mostly Cloudy
2:55 PM 73.4 °F 57.2 °F 57% 29.86 in 10.0 mi SE 16.1 mph 23.0 mph 0.00 in   Mostly Cloudy
3:15 PM 75.2 °F 57.2 °F 53% 29.85 in 10.0 mi SE 15.0 mph 25.3 mph 0.00 in   Mostly Cloudy
3:35 PM 75.2 °F 57.2 °F 53% 29.85 in 10.0 mi SE 18.4 mph 25.3 mph 0.00 in   Mostly Cloudy
3:55 PM 73.4 °F 57.2 °F 57% 29.85 in 10.0 mi SE 15.0 mph 23.0 mph 0.00 in   Mostly Cloudy
4:15 PM 73.4 °F 57.2 °F 57% 29.85 in 10.0 mi ESE 13.8 mph - 0.00 in   Mostly Cloudy
4:35 PM 73.4 °F 57.2 °F 57% 29.85 in 10.0 mi SE 11.5 mph 18.4 mph 0.00 in   Mostly Cloudy
4:55 PM 73.4 °F 59.0 °F 61% 29.85 in 10.0 mi SE 16.1 mph - 0.00 in   Mostly Cloudy
5:15 PM 73.4 °F 57.2 °F 57% 29.85 in 10.0 mi ESE 18.4 mph 24.2 mph 0.00 in   Mostly Cloudy
5:35 PM 73.4 °F 57.2 °F 57% 29.84 in 10.0 mi ESE 23.0 mph 27.6 mph 0.00 in   Scattered Clouds
5:55 PM 73.4 °F 57.2 °F 57% 29.84 in 10.0 mi ESE 21.9 mph 25.3 mph 0.00 in   Partly Cloudy
6:15 PM 73.4 °F 57.2 °F 57% 29.84 in 10.0 mi ESE 20.7 mph 25.3 mph 0.00 in   Clear
6:35 PM 71.6 °F 57.2 °F 60% 29.84 in 10.0 mi ESE 21.9 mph 28.8 mph 0.00 in   Clear
6:55 PM 69.8 °F 57.2 °F 64% 29.84 in 10.0 mi ESE 23.0 mph 26.5 mph 0.00 in   Clear
7:35 PM 68.0 °F 55.4 °F 64% 29.84 in 10.0 mi ESE 19.6 mph 25.3 mph 0.00 in   Clear
7:55 PM 66.2 °F 55.4 °F 68% 29.83 in 10.0 mi ESE 19.6 mph 25.3 mph 0.00 in   Clear
8:15 PM 66.2 °F 55.4 °F 68% 29.84 in 10.0 mi ESE 18.4 mph 26.5 mph 0.00 in   Clear
8:35 PM 64.4 °F 55.4 °F 73% 29.84 in 10.0 mi East 18.4 mph 21.9 mph 0.00 in   Clear
8:55 PM 64.4 °F 57.2 °F 77% 29.86 in 10.0 mi ESE 15.0 mph - 0.00 in   Clear
9:15 PM 62.6 °F 57.2 °F 82% 29.85 in 10.0 mi ESE 17.3 mph - 0.00 in   Clear
9:35 PM 62.6 °F 57.2 °F 82% 29.86 in 10.0 mi East 13.8 mph - 0.00 in   Partly Cloudy
9:55 PM 62.6 °F 57.2 °F 82% 29.85 in 10.0 mi East 13.8 mph - 0.00 in   Clear
10:15 PM 62.6 °F 57.2 °F 82% 29.85 in 10.0 mi East 16.1 mph - 0.00 in   Clear
10:35 PM 60.8 °F 57.2 °F 88% 29.86 in 10.0 mi East 11.5 mph - 0.00 in   Clear
10:55 PM 60.8 °F 57.2 °F 88% 29.85 in 10.0 mi East 11.5 mph - 0.00 in   Clear
11:15 PM 60.8 °F 57.2 °F 88% 29.84 in 10.0 mi East 12.7 mph - 0.00 in   Clear
11:35 PM 60.8 °F 59.0 °F 94% 29.84 in 10.0 mi East 12.7 mph - 0.00 in   Clear
11:55 PM 60.8 °F 59.0 °F 94% 29.82 in 10.0 mi East 16.1 mph - 0.00 in   Mostly Cloudy